Simultaneous Nadir Overpasses (SNOs) Predictions

Prediction of SNOs between NOAA-19 and TERRA Satellite Orbit:

Table of predicted SNOs for the next 14.0 days since TLE Epoch: 9/24/2016
Index Date (NOAA-19) Time (NOAA-19) Lat,Lon (NOAA-19) SZA (NOAA-19 ) Date (TERRA) Time (TERRA) Lat,Lon (TERRA) SZA (TERRA ) Distance(km) Time Diff (sec)
1 09/25/2016 10:26:07 74.26, 31.68 75.54 09/25/2016 10:26:23 74.25, 31.57 75.53 3.23 16
2 09/25/2016 11:17:06 -74.04,-160.51 104.64 09/25/2016 11:15:53 -74.12,-161.08 104.60 19.92 73
3 09/27/2016 15:09:22 75.01, -41.18 77.06 09/27/2016 15:10:27 74.92, -37.84 77.14 96.77 65
4 09/27/2016 16:00:09 -74.25, 128.24 103.59 09/27/2016 16:00:08 -74.24, 128.12 103.61 3.85 1
5 09/29/2016 20:43:11 -74.42, 57.08 102.58 09/29/2016 20:44:22 -74.39, 57.40 102.58 10.11 71
6 09/29/2016 21:34:07 74.27,-135.24 77.31 09/29/2016 21:33:50 74.26,-135.27 77.29 1.47 17
7 10/02/2016 02:17:07 74.32, 153.91 78.22 10/02/2016 02:18:05 74.34, 153.85 78.24 2.57 58
8 10/02/2016 03:08:08 -74.27, -38.69 101.82 10/02/2016 03:07:34 -74.27, -38.68 101.83 0.61 34
9 10/04/2016 07:51:08 -74.35,-109.61 100.89 10/04/2016 07:51:49 -74.33,-109.59 100.90 1.83 41
10 10/04/2016 08:42:06 74.24, 57.93 79.04 10/04/2016 08:41:16 74.25, 57.85 79.02 2.59 50
11 10/06/2016 13:25:07 74.35, -13.06 79.98 10/06/2016 13:25:30 74.35, -12.99 79.98 2.35 23
